Back to catalog

STARLINK-3271

AliveCommunicationsVLEO
NORAD 50167·PAYLOAD·🇺🇸 United States

Launched Dec 18, 2021 from Vandenberg Space Force Base

Loading…

Next Passes (next 24 hours)

TLE

FreshSource: CelesTrak SupGP

Epoch: Sep 14, 2026, 13:49 UTC

1 50167C 21125M   26257.57618056  .00010508  00000+0  30067-3 0  2579
2 50167  53.1579 120.1386 0001311  92.2642  81.8228 15.35391507    12

Track STARLINK-3271 in real time with AllMySat

Download on the App Store